This is the latest recevied weather packets stored in our database for station/object W8CWV-13. If no packets are shown the sender has not sent any weather packets the latest 1 day(s).
| Time | Temp. | Humidity | Pressure | Rain* | Wind** | Luminosity | Snow |
|---|---|---|---|---|---|---|---|
| 1778059711 | 17.22° C | 100% | 1014.4 hPa | - | - | - | - |
| 1778059138 | 17.22° C | 100% | 1014.5 hPa | - | - | - | - |
| 1778058565 | 17.22° C | 100% | 1014.7 hPa | - | - | - | - |
| 1778057993 | 17.22° C | 100% | 1014.8 hPa | - | - | - | - |
| 1778057418 | 17.22° C | 100% | 1014.8 hPa | - | - | - | - |
| 1778056846 | 17.78° C | 100% | 1015 hPa | - | - | - | - |
| 1778056274 | 17.78° C | 100% | 1015 hPa | - | - | - | - |
| 1778055696 | 17.78° C | 100% | 1015.1 hPa | - | - | - | - |
| 1778055125 | 17.78° C | 100% | 1015.1 hPa | - | - | - | - |
| 1778054552 | 17.78° C | 100% | 1015.2 hPa | - | - | - | - |
| 1778053974 | 17.78° C | 100% | 1015.1 hPa | - | - | - | - |
| 1778053403 | 17.78° C | 100% | 1015 hPa | - | - | - | - |
| 1778052255 | 17.78° C | 100% | 1015.1 hPa | - | - | - | - |
| 1778050534 | 18.33° C | 100% | 1015.5 hPa | - | - | - | - |
| 1778049390 | 18.89° C | 100% | 1015.7 hPa | - | - | - | - |
| 1778048819 | 19.44° C | 100% | 1015.9 hPa | - | - | - | - |
| 1778048247 | 19.44° C | 100% | 1016 hPa | - | - | - | - |
| 1778047672 | 19.44° C | 100% | 1016.1 hPa | - | - | - | - |
| 1778047100 | 18.89° C | 100% | 1016.3 hPa | - | - | - | - |
| 1778045953 | 18.89° C | 100% | 1017 hPa | - | - | - | - |
| 1778045376 | 18.89° C | 100% | 1017.2 hPa | - | - | - | - |
| 1778043653 | 19.44° C | 100% | 1017 hPa | - | - | - | - |
| 1778043081 | 20° C | 100% | 1017.1 hPa | - | - | - | - |
| 1778042503 | 20° C | 100% | 1017.1 hPa | - | - | - | - |
| 1778041932 | 20° C | 100% | 1017.1 hPa | - | - | - | - |
* Rain since midnight (hover to see other rain measurements)
** Current wind speed in m/s (hover to see current wind gust speed)